Weather Roundup
Issued by NWS Chicago, IL

Home | Current Version | Previous Version | Graphics & Text | Print | Product List | Glossary On
Versions: 1 2 3 4 5 6 7 8 9 10 11 12 13 14 15 16 17 18 19 20 21 22 23 24 25 26 27 28 29 30 31 32 33 34 35 36 37 38 39 40 41 42 43 44 45 46 47 48 49 50
848
NZUS59 KLOT 252003
HRRLOT

CHICAGO AREA WEATHER ROUNDUP
NATIONAL WEATHER SERVICE CHICAGO/ROMEOVILLE IL
200 PM CST SUN FEB 25 2018

NOTE: "FAIR" INDICATES FEW OR NO CLOUDS BELOW 12,000 FEET WITH NO
SIGNIFICANT WEATHER AND/OR OBSTRUCTIONS TO VISIBILITY.

* THESE STATIONS ARE NOT UNDER NWS QUALITY CONTROL. THEY ALSO MAY NOT
  REPORT WEATHER SUCH AS PRECIPITATION OR FOG.

ILZ005-006-012>014-019>023-252100-
NORTHEAST ILLINOIS

CITY           SKY/WX    TMP DP  RH WIND       PRES   REMARKS
OHARE            N/A     43  24  47 SW22G31   29.92S
MIDWAY           N/A     44  22  41 W24G33    29.94S
AURORA           N/A     43  26  51 SW17G26   29.95S
LANSING*         N/A     44  29  55 W17G29    29.97S
JOLIET*          N/A     44  25  46 W15G25    29.98R
WAUKEGAN         N/A     42  22  44 SW16G32   29.88R
DUPAGE AIRPORT   N/A     43  28  55 SW21G33   29.94R
WHEELING         N/A     44  22  41 SW21G32   29.93R
KANKAKEE*        N/A     44  26  49 W17G24    30.01S
MORRIS*          N/A     44  26  50 SW17G25   29.98R
LEWIS AIRPORT*   N/A     43  28  55 W18G26    29.96S
NORTHERLY ISL    N/A     42  19  40 SW13        N/A
$$

WIZ051-052-058>065-066-070>072-252100-
SOUTHEAST WISCONSIN

CITY           SKY/WX    TMP DP  RH WIND       PRES   REMARKS
MILWAUKEE        N/A     41  21  44 SW26G41   29.84R
KENOSHA*         N/A     42  23  46 W26G39    29.86R
RACINE*          N/A     41  22  46 W22G35    29.87R
BURLINGTON       N/A     39  26  58 SW21G30   29.87R
WAUKESHA       SUNNY     36  19  51 SW17G28   29.84R
WEST BEND        N/A     36  21  55 W21G33    29.79R
$$

INZ001>003-010>013-019-020-252100-
NORTHWEST INDIANA

CITY           SKY/WX    TMP DP  RH WIND       PRES   REMARKS
GARY*          MOSUNNY   45  23  42 SW23G35   29.97R
MICHIGAN CITY* NOT AVBL
RENSSELAER*    NOT AVBL
VALPARAISO       N/A     45  25  45 SW23G32   29.98R
$$

LMZ740>746-252100-
SOUTHERN LAKE MICHIGAN

STATION/POSITION TIME  SKY/WX   TEMP WIND        PRES    VSBY
                                AIR  DIR/SP/G
                 (UTC)          (F)  (DEG/KT/KT) (MB)    (MI)
HARRISON CRIB    1940            42  240/ 20/ 22   N/A
BURNHAM HARBOR   2000            42  250/ 13/ 18   N/A
CALUMET HARBOR   1930            43  240/ 11/ 22 1013.6R
BURNS HARBOR     1940            41  230/ 18/ 27 1015.2R
MICHIGAN CITY    1940            39  230/ 24/ 26   N/A
$$

ABBREVIATIONS USED IN REMARKS
   TC - TEMPERATURE IN CELSIUS
  WCI - WIND CHILL INDEX
   HX - HEAT INDEX
  VSB - VISIBILITY
$$




USA.gov is the U.S. government's official web portal to all federal, state and local government web resources and services.